Location: Clarion
(42.7316°N, 93.7330°W)
Time: 09:26:23
(UTC+00:00)

Cosmos 44 - Pass Details

Date: 22 April 2026
Orbit: 568 x 782 km, 65.1° (Epoch: 17 May)

Event Time Altitude Azimuth Distance (km) Brightness Sun altitude
Rises 02:40:16 0° 215° (SW) 3,046 6.6 -16.6°
Reaches altitude 10° 02:42:32 10° 216° (SW) 2,166 5.8 -16.9°
Maximum altitude 02:47:31 80° 304° (NW) 750 3.5 -17.7°
Drops below altitude 10° 02:52:49 10° 32° (NNE) 2,300 6.0 -18.5°
Sets 02:55:17 0° 33° (NNE) 3,249 6.8 -18.8°
